Regional Weather Roundup
Issued by NWS

Home | Current Version | Previous Version | Graphics & Text | Print | Product List | Glossary On
Versions: 1 2 3 4 5 6 7 8 9 10 11 12 13 14 15 16 17 18 19 20 21 22 23 24 25 26 27 28 29 30 31 32 33 34 35 36 37 38 39 40 41 42 43 44 45 46 47 48 49 50
000
ASUS43 KDTX 300001
RWRMI
MICHIGAN HOURLY REGIONAL WEATHER ROUNDUP
NATIONAL WEATHER SERVICE DETROIT/PONTIAC MI
800 PM EDT SAT AUG 29 2015

NOTE: "FAIR" INDICATES FEW OR NO CLOUDS BELOW 12,000 FEET WITH NO
SIGNIFICANT WEATHER AND/OR OBSTRUCTION TO VISIBILITY.

MIZ047>049-052>055-059>063-066>070-074>076-081>083-300100-
SOUTHEAST LOWER MICHIGAN

CITY           SKY/WX    TMP DP  RH WIND       PRES   REMARKS
ADRIAN         CLOUDY    70  67  90 CALM      30.06R
6HR MIN TEMP:  70; 6HR MAX TEMP:  76; 6HR PCP: TRACE;

ALMA           CLOUDY    65  64  97 SE3       30.07F FOG
ANN ARBOR      CLOUDY    70  64  81 CALM      30.05S
BAD AXE        CLOUDY    65  63  94 S3        30.08F FOG
CARO           LGT RAIN  65  64  97 CALM      30.08S
DETROIT CITY   CLOUDY    73  62  68 SE3       30.05S
6HR MIN TEMP:  73; 6HR MAX TEMP:  74; 6HR PCP: TRACE;

DETROIT        LGT RAIN  75  61  61 CALM      30.05S
6HR MIN TEMP:  74; 6HR MAX TEMP:  77; 6HR PCP: TRACE;

FLINT          LGT RAIN  69  65  86 N7        30.07F FOG
6HR MIN TEMP:  69; 6HR MAX TEMP:  74; 6HR PCP:  0.02;

GROSSE ILE     CLOUDY    72  63  73 CALM      30.04R
HILLSDALE      DRIZZLE   69  69 100 CALM      30.06F
6HR MIN TEMP:  69; 6HR MAX TEMP:  76;

HOWELL         LGT RAIN  67  65  96 N3        30.07S

CITY           SKY/WX    TMP DP  RH WIND       PRES   REMARKS
JACKSON        CLOUDY    69  67  93 N6        30.07R
6HR MIN TEMP:  68; 6HR MAX TEMP:  72; 6HR PCP:  0.01;

LAMBERTVILLE   CLOUDY    72  66  82 CALM      30.04F
6HR MIN TEMP:  72; 6HR MAX TEMP:  79;

LANSING        LGT RAIN  66  65  96 CALM      30.07S FOG
6HR MIN TEMP:  66; 6HR MAX TEMP:  69; 6HR PCP:  0.10;

LAPEER         DRIZZLE   66  65  96 CALM      30.08S
6HR MIN TEMP:  66; 6HR MAX TEMP:  70; 6HR PCP:  0.01;

MASON          CLOUDY    67  63  88 CALM      30.07S FOG
6HR MIN TEMP:  67; 6HR MAX TEMP:  70;

MT. CLEMENS    MOCLDY    70  66  86 E5        30.04S
6HR MIN TEMP:  70; 6HR MAX TEMP:  72; 6HR PCP: TRACE;

PONTIAC        LGT RAIN  68  66  93 N5        30.06S
6HR MIN TEMP:  68; 6HR MAX TEMP:  72; 6HR PCP:  0.03;

PORT HOPE        N/A     66  61  84 S5        30.06F
6HR MIN TEMP:  66; 6HR MAX TEMP:  67;

PORT HURON     CLOUDY    68  66  94 CALM      30.07R
TRI CITIES     CLOUDY    67  63  87 S7        30.08F FOG
6HR MIN TEMP:  67; 6HR MAX TEMP:  70; 6HR PCP:  0.05;

MIDLAND        CLOUDY    65  64  94 CALM      30.06S
TROY           CLOUDY    72  65  78 CALM      30.07S
SAGINAW HB     DRIZZLE   64  63  94 CALM      30.07S
$$
MIZ043>046-050>051-056>058-064>065-071>073-077>080-300100-
SOUTHWEST LOWER MICHIGAN

CITY           SKY/WX    TMP DP  RH WIND       PRES   REMARKS
BATTLE CREEK   CLOUDY    68  66  93 E3        30.06S FOG
6HR MIN TEMP:  68; 6HR MAX TEMP:  70; 6HR PCP:  0.08;

BENTON HARBOR  LGT RAIN  69  67  93 E5        30.01S FOG
6HR MIN TEMP:  66; 6HR MAX TEMP:  70; 6HR PCP:  0.06;

BIG RAPIDS     CLOUDY    64  63  95 CALM      30.06S
6HR MIN TEMP:  64; 6HR MAX TEMP:  67;

COLDWATER      CLOUDY    69  68  98 CALM      30.06S FOG
6HR MIN TEMP:  69; 6HR MAX TEMP:  73;

FREMONT        CLOUDY    64  64 100 E3        30.04S
HOLLAND        CLOUDY    68  65  90 E5        30.04S
6HR MIN TEMP:  67; 6HR MAX TEMP:  69; 6HR PCP:  0.01;

GRAND RAPIDS   LGT RAIN  66  65  96 E7        30.04F FOG
6HR MIN TEMP:  66; 6HR MAX TEMP:  68; 6HR PCP:  0.01;

IONIA          CLOUDY    65  65  98 E5        30.04F FOG
6HR MIN TEMP:  65; 6HR MAX TEMP:  69; 6HR PCP:  0.02;

KALAMAZOO      CLOUDY    69  66  90 SE3       30.04F FOG
6HR MIN TEMP:  68; 6HR MAX TEMP:  72; 6HR PCP:  0.09;

LUDINGTON      CLOUDY    71  64  79 CALM      30.05S
6HR MIN TEMP:  71; 6HR MAX TEMP:  73;

MARSHALL       CLOUDY    67  66  95 NE3       30.05F FOG
6HR MIN TEMP:  67; 6HR MAX TEMP:  71;

MOUNT PLEASANT CLOUDY    66  64  91 S6        30.06S FOG
6HR MIN TEMP:  66; 6HR MAX TEMP:  69;

MUSKEGON       CLOUDY    66  62  87 E5        30.03F FOG
6HR MIN TEMP:  66; 6HR MAX TEMP:  68; 6HR PCP:  0.02;

SOUTH HAVEN    DRIZZLE   68  66  93 E5        30.02S
$$
MIZ016>042-300100-
NORTHERN LOWER MICHIGAN

CITY           SKY/WX    TMP DP  RH WIND       PRES   REMARKS
ALPENA         CLEAR     67  61  81 S5        30.06S
6HR MIN TEMP:  66; 6HR MAX TEMP:  73;

BEAVER ISLAND  CLEAR     65  61  86 SW5       30.05S
6HR MIN TEMP:  65; 6HR MAX TEMP:  71;

BELLAIRE       CLOUDY    71  61  72 CALM      30.04S
6HR MIN TEMP:  70; 6HR MAX TEMP:  74;

CADILLAC       MOCLDY    66  59  79 S7        30.06S
CHARLEVOIX     CLEAR     67  62  85 W3        30.07S
6HR MIN TEMP:  67; 6HR MAX TEMP:  73;

FRANKFORT      CLEAR     67  63  87 W3        30.05S
GAYLORD        CLOUDY    69  60  73 SW3       30.06S
6HR MIN TEMP:  69; 6HR MAX TEMP:  71;

GRAYLING       CLOUDY    66  60  80 S3        30.07F
6HR MIN TEMP:  66; 6HR MAX TEMP:  72;

HARBOR SPRINGS CLEAR     67  60  79 CALM      30.04S
HOUGHTON LAKE  CLOUDY    66  60  81 S5        30.07S
6HR MIN TEMP:  66; 6HR MAX TEMP:  70;

MANISTEE       CLOUDY    66  59  77 NW5       30.05S
OSCODA         PTCLDY    67  61  82 CALM      30.06S
6HR MIN TEMP:  64; 6HR MAX TEMP:  69;

PELLSTON       CLEAR     68  60  75 CALM      30.05S
6HR MIN TEMP:  68; 6HR MAX TEMP:  73;

ROGERS CITY    CLOUDY    65  62  89 CALM      30.06S
TRAVERSE CITY  MOCLDY    69  61  75 VRB5      30.03F
6HR MIN TEMP:  69; 6HR MAX TEMP:  76;

$$
MIZ007>008-015-300100-
EASTERN UPPER MICHIGAN

CITY           SKY/WX    TMP DP  RH WIND       PRES   REMARKS
KINROSS        PTCLDY    66  61  82 SW5       30.04S
6HR MIN TEMP:  66; 6HR MAX TEMP:  72;

MACKINAC ISLAN CLOUDY    66  58  75 SW7       30.04F
6HR MIN TEMP:  66; 6HR MAX TEMP:  69;

NEWBERRY       MOCLDY    66  61  82 S7        30.02S
6HR MIN TEMP:  66; 6HR MAX TEMP:  75;

S. S. MARIE    PTCLDY    68  60  75 SW6       30.02S
6HR MIN TEMP:  68; 6HR MAX TEMP:  72;

$$
MIZ004>006-011>014-085-300100-
CENTRAL UPPER MICHIGAN

CITY           SKY/WX    TMP DP  RH WIND       PRES   REMARKS
MANISTIQUE     CLEAR     64  61  91 S8        30.03S
6HR MIN TEMP:  64; 6HR MAX TEMP:  70;

ESCANABA       CLEAR     66  61  82 S9        30.01F
6HR MIN TEMP:  66; 6HR MAX TEMP:  70;

MENOMINEE      CLEAR     68  59  73 S5        30.02F
6HR MIN TEMP:  64; 6HR MAX TEMP:  72;

SAWYER-GWINN   PTCLDY    72  59  64 NE7       30.01S
$$
MIZ001>003-009>011-084-300100-
WESTERN UPPER MICHIGAN

CITY           SKY/WX    TMP DP  RH WIND       PRES   REMARKS
IRON MOUNTAIN  CLEAR     71  62  73 S9        30.00F
6HR MIN TEMP:  71; 6HR MAX TEMP:  77;

HOUGHTON       CLEAR     69  58  67 W7        29.99S
6HR MIN TEMP:  69; 6HR MAX TEMP:  74;

IRONWOOD       CLEAR     72  64  78 S3        29.97S
6HR MIN TEMP:  72; 6HR MAX TEMP:  75;

$$

ABBREVIATIONS USED IN REMARKS
   TC - TEMPERATURE IN CELSIUS
  WCI - WIND CHILL INDEX
   HX - HEAT INDEX
  VSB - VISIBILITY




USA.gov is the U.S. government's official web portal to all federal, state and local government web resources and services.